owner,sensor,date,latitude,longitude,vertical_datum,wind_speed,wind_to_direction,wind_speed_of_gust,qcFlag 
COMPS,ioos:station:USF.COMPS:ARP:1,2019-06-01T00:54:00,28.4330,-82.6670,10.0,3.29,284.71,4.5,'11111222,11111222,11111222' 
COMPS,ioos:station:USF.COMPS:ARP:1,2019-06-01T01:54:00,28.4330,-82.6670,10.0,4.03,295.97,5.78,'11111222,11111222,11111222' 
COMPS,ioos:station:USF.COMPS:ARP:1,2019-06-01T02:54:00,28.4330,-82.6670,10.0,4.0,298.29,4.8,'11111222,11111222,11111222' 
COMPS,ioos:station:USF.COMPS:ARP:1,2019-06-01T03:54:00,28.4330,-82.6670,10.0,4.32,303.69,5.58,'11111222,11111222,11111222' 
COMPS,ioos:station:USF.COMPS:ARP:1,2019-06-01T04:54:00,28.4330,-82.6670,10.0,4.79,306.85,5.58,'11111222,11111222,11111222' 
COMPS,ioos:station:USF.COMPS:ARP:1,2019-06-01T05:54:00,28.4330,-82.6670,10.0,3.58,286.67,4.7,'11111222,11111222,11111222' 
COMPS,ioos:station:USF.COMPS:ARP:1,2019-06-01T06:54:00,28.4330,-82.6670,10.0,4.28,290.19,5.39,'11111222,11111222,11111222' 
COMPS,ioos:station:USF.COMPS:ARP:1,2019-06-01T07:54:00,28.4330,-82.6670,10.0,3.26,287.7,4.5,'11111222,11111222,11111222' 
COMPS,ioos:station:USF.COMPS:ARP:1,2019-06-01T08:54:00,28.4330,-82.6670,10.0,3.01,271.1,4.31,'11111222,11111222,11111222' 
COMPS,ioos:station:USF.COMPS:ARP:1,2019-06-01T09:54:00,28.4330,-82.6670,10.0,2.8,286.65,3.62,'11111222,11111222,11111222' 
COMPS,ioos:station:USF.COMPS:ARP:1,2019-06-01T10:54:00,28.4330,-82.6670,10.0,2.71,301.21,3.33,'11111222,11111222,11111222' 
COMPS,ioos:station:USF.COMPS:ARP:1,2019-06-01T11:54:00,28.4330,-82.6670,10.0,3.72,288.1,4.99,'11111222,11111222,11111222' 
COMPS,ioos:station:USF.COMPS:ARP:1,2019-06-01T12:54:00,28.4330,-82.6670,10.0,4.23,289.13,5.19,'11111222,11111222,11111222' 
COMPS,ioos:station:USF.COMPS:ARP:1,2019-06-01T13:54:00,28.4330,-82.6670,10.0,3.57,301.84,4.21,'11111222,11111222,11111222' 
COMPS,ioos:station:USF.COMPS:ARP:1,2019-06-01T14:54:00,28.4330,-82.6670,10.0,3.43,287.65,4.7,'11111222,11111222,11111222' 
COMPS,ioos:station:USF.COMPS:ARP:1,2019-06-01T15:54:00,28.4330,-82.6670,10.0,3.76,306.13,4.5,'11111222,11111222,11111222' 
COMPS,ioos:station:USF.COMPS:ARP:1,2019-06-01T16:54:00,28.4330,-82.6670,10.0,4.16,293.47,5.19,'11111222,11111222,11111222' 
COMPS,ioos:station:USF.COMPS:ARP:1,2019-06-01T17:54:00,28.4330,-82.6670,10.0,4.34,291.1,5.19,'11111222,11111222,11111222' 
COMPS,ioos:station:USF.COMPS:ARP:1,2019-06-01T18:54:00,28.4330,-82.6670,10.0,4.39,285.14,5.19,'11111222,11111222,11111222' 
COMPS,ioos:station:USF.COMPS:ARP:1,2019-06-01T19:54:00,28.4330,-82.6670,10.0,5.06,288.38,5.97,'11111222,11111222,11111222' 
COMPS,ioos:station:USF.COMPS:ARP:1,2019-06-01T20:54:00,28.4330,-82.6670,10.0,4.65,283.87,5.78,'11111222,11111222,11111222' 
COMPS,ioos:station:USF.COMPS:ARP:1,2019-06-01T21:54:00,28.4330,-82.6670,10.0,4.69,279.18,7.05,'11111222,11111222,11111222' 
COMPS,ioos:station:USF.COMPS:ARP:1,2019-06-01T22:54:00,28.4330,-82.6670,10.0,4.74,280.22,6.56,'11111222,11111222,11111222' 
COMPS,ioos:station:USF.COMPS:ARP:1,2019-06-01T23:54:00,28.4330,-82.6670,10.0,4.28,283.23,5.78,'11111222,11111222,11111222' 
COMPS,ioos:station:USF.COMPS:ARP:1,2019-06-02T00:54:00,28.4330,-82.6670,10.0,3.05,278.32,4.21,'11111222,11111222,11111222' 
COMPS,ioos:station:USF.COMPS:ARP:1,2019-06-02T01:54:00,28.4330,-82.6670,10.0,2.95,285.0,4.21,'11111222,11111222,11111222' 
COMPS,ioos:station:USF.COMPS:ARP:1,2019-06-02T02:54:00,28.4330,-82.6670,10.0,2.5,280.31,3.52,'11111222,11111222,11111222' 
COMPS,ioos:station:USF.COMPS:ARP:1,2019-06-02T03:54:00,28.4330,-82.6670,10.0,2.38,266.63,3.62,'11111222,11111222,11111222' 
COMPS,ioos:station:USF.COMPS:ARP:1,2019-06-02T04:54:00,28.4330,-82.6670,10.0,1.41,111.27,2.05,'11111222,11111222,11111222' 
COMPS,ioos:station:USF.COMPS:ARP:1,2019-06-02T05:54:00,28.4330,-82.6670,10.0,0.29,133.97,1.07,'11111222,11111222,11111222' 
COMPS,ioos:station:USF.COMPS:ARP:1,2019-06-02T06:54:00,28.4330,-82.6670,10.0,0.47,175.51,0.88,'11111222,11111222,11111222' 
COMPS,ioos:station:USF.COMPS:ARP:1,2019-06-02T07:54:00,28.4330,-82.6670,10.0,0.73,179.63,1.07,'11111222,11111222,11111222' 
COMPS,ioos:station:USF.COMPS:ARP:1,2019-06-02T08:54:00,28.4330,-82.6670,10.0,1.15,270.23,1.76,'11111222,11111222,11111222' 
COMPS,ioos:station:USF.COMPS:ARP:1,2019-06-02T09:54:00,28.4330,-82.6670,10.0,2.56,273.35,3.72,'11111222,11111222,11111222' 
COMPS,ioos:station:USF.COMPS:ARP:1,2019-06-02T10:54:00,28.4330,-82.6670,10.0,1.66,282.89,2.74,'11111222,11111222,11111222' 
COMPS,ioos:station:USF.COMPS:ARP:1,2019-06-02T11:54:00,28.4330,-82.6670,10.0,3.82,289.11,4.99,'11111222,11111222,11111222' 
COMPS,ioos:station:USF.COMPS:ARP:1,2019-06-02T12:54:00,28.4330,-82.6670,10.0,3.83,289.72,4.7,'11111222,11111222,11111222' 
COMPS,ioos:station:USF.COMPS:ARP:1,2019-06-02T13:54:00,28.4330,-82.6670,10.0,3.55,293.37,4.6,'11111222,11111222,11111222' 
COMPS,ioos:station:USF.COMPS:ARP:1,2019-06-02T14:54:00,28.4330,-82.6670,10.0,3.41,294.9,4.5,'11111222,11111222,11111222' 
COMPS,ioos:station:USF.COMPS:ARP:1,2019-06-02T15:54:00,28.4330,-82.6670,10.0,4.03,285.5,5.78,'11111222,11111222,11111222' 
COMPS,ioos:station:USF.COMPS:ARP:1,2019-06-02T16:54:00,28.4330,-82.6670,10.0,4.48,283.62,5.78,'11111222,11111222,11111222' 
COMPS,ioos:station:USF.COMPS:ARP:1,2019-06-02T17:54:00,28.4330,-82.6670,10.0,4.87,289.12,6.66,'11111222,11111222,11111222' 
COMPS,ioos:station:USF.COMPS:ARP:1,2019-06-02T18:54:00,28.4330,-82.6670,10.0,5.36,292.45,6.85,'11111222,11111222,11111222' 
COMPS,ioos:station:USF.COMPS:ARP:1,2019-06-02T19:54:00,28.4330,-82.6670,10.0,4.3,288.14,5.97,'11111222,11111222,11111222' 
COMPS,ioos:station:USF.COMPS:ARP:1,2019-06-02T20:54:00,28.4330,-82.6670,10.0,4.26,283.5,5.78,'11111222,11111222,11111222' 
COMPS,ioos:station:USF.COMPS:ARP:1,2019-06-02T21:54:00,28.4330,-82.6670,10.0,4.49,291.98,5.68,'11111222,11111222,11111222' 
COMPS,ioos:station:USF.COMPS:ARP:1,2019-06-02T22:54:00,28.4330,-82.6670,10.0,4.12,292.87,5.39,'11111222,11111222,11111222' 
COMPS,ioos:station:USF.COMPS:ARP:1,2019-06-02T23:54:00,28.4330,-82.6670,10.0,3.34,276.5,4.31,'11111222,11111222,11111222' 
COMPS,ioos:station:USF.COMPS:ARP:1,2019-06-03T00:54:00,28.4330,-82.6670,10.0,3.28,268.73,4.5,'11111222,11111222,11111222' 
COMPS,ioos:station:USF.COMPS:ARP:1,2019-06-03T01:54:00,28.4330,-82.6670,10.0,3.27,274.49,4.7,'11111222,11111222,11111222' 
COMPS,ioos:station:USF.COMPS:ARP:1,2019-06-03T02:54:00,28.4330,-82.6670,10.0,2.84,267.15,4.7,'11111222,11111222,11111222' 
COMPS,ioos:station:USF.COMPS:ARP:1,2019-06-03T03:54:00,28.4330,-82.6670,10.0,3.1,277.36,4.5,'11111222,11111222,11111222' 
COMPS,ioos:station:USF.COMPS:ARP:1,2019-06-03T04:54:00,28.4330,-82.6670,10.0,2.97,269.31,4.41,'11111222,11111222,11111222' 
COMPS,ioos:station:USF.COMPS:ARP:1,2019-06-03T05:54:00,28.4330,-82.6670,10.0,3.18,279.84,4.21,'11111222,11111222,11111222' 
COMPS,ioos:station:USF.COMPS:ARP:1,2019-06-03T06:54:00,28.4330,-82.6670,10.0,3.52,282.32,4.5,'11111222,11111222,11111222' 
COMPS,ioos:station:USF.COMPS:ARP:1,2019-06-03T07:54:00,28.4330,-82.6670,10.0,2.75,273.41,3.72,'11111222,11111222,11111222' 
COMPS,ioos:station:USF.COMPS:ARP:1,2019-06-03T08:54:00,28.4330,-82.6670,10.0,3.16,281.83,4.41,'11111222,11111222,11111222' 
COMPS,ioos:station:USF.COMPS:ARP:1,2019-06-03T09:54:00,28.4330,-82.6670,10.0,3.95,300.0,4.9,'11111222,11111222,11111222' 
COMPS,ioos:station:USF.COMPS:ARP:1,2019-06-03T10:54:00,28.4330,-82.6670,10.0,3.56,300.44,4.9,'11111222,11111222,11111222' 
COMPS,ioos:station:USF.COMPS:ARP:1,2019-06-03T11:54:00,28.4330,-82.6670,10.0,4.23,308.73,5.48,'11111222,11111222,11111222' 
COMPS,ioos:station:USF.COMPS:ARP:1,2019-06-03T12:54:00,28.4330,-82.6670,10.0,4.06,307.06,4.9,'11111222,11111222,11111222' 
COMPS,ioos:station:USF.COMPS:ARP:1,2019-06-03T13:54:00,28.4330,-82.6670,10.0,3.66,296.9,4.99,'11111222,11111222,11111222' 
COMPS,ioos:station:USF.COMPS:ARP:1,2019-06-03T14:54:00,28.4330,-82.6670,10.0,3.62,298.81,4.6,'11111222,11111222,11111222' 
COMPS,ioos:station:USF.COMPS:ARP:1,2019-06-03T15:54:00,28.4330,-82.6670,10.0,3.91,293.14,4.9,'11111222,11111222,11111222' 
COMPS,ioos:station:USF.COMPS:ARP:1,2019-06-03T16:54:00,28.4330,-82.6670,10.0,4.28,287.49,5.29,'11111222,11111222,11111222' 
COMPS,ioos:station:USF.COMPS:ARP:1,2019-06-03T17:54:00,28.4330,-82.6670,10.0,4.47,302.4,5.48,'11111222,11111222,11111222' 
COMPS,ioos:station:USF.COMPS:ARP:1,2019-06-03T18:54:00,28.4330,-82.6670,10.0,4.3,296.77,5.58,'11111222,11111222,11111222' 
COMPS,ioos:station:USF.COMPS:ARP:1,2019-06-03T19:54:00,28.4330,-82.6670,10.0,4.4,291.62,5.19,'11111222,11111222,11111222' 
COMPS,ioos:station:USF.COMPS:ARP:1,2019-06-03T20:54:00,28.4330,-82.6670,10.0,3.99,283.68,5.29,'11111222,11111222,11111222' 
COMPS,ioos:station:USF.COMPS:ARP:1,2019-06-03T21:54:00,28.4330,-82.6670,10.0,4.04,287.19,5.39,'11111222,11111222,11111222' 
COMPS,ioos:station:USF.COMPS:ARP:1,2019-06-03T22:54:00,28.4330,-82.6670,10.0,3.47,289.75,4.6,'11111222,11111222,11111222' 
COMPS,ioos:station:USF.COMPS:ARP:1,2019-06-03T23:54:00,28.4330,-82.6670,10.0,3.39,268.13,4.5,'11111222,11111222,11111222' 
COMPS,ioos:station:USF.COMPS:ARP:1,2019-06-04T00:54:00,28.4330,-82.6670,10.0,2.03,263.07,3.03,'11111222,11111222,11111222' 
COMPS,ioos:station:USF.COMPS:ARP:1,2019-06-04T01:54:00,28.4330,-82.6670,10.0,1.89,266.76,3.03,'11111222,11111222,11111222' 
COMPS,ioos:station:USF.COMPS:ARP:1,2019-06-04T02:54:00,28.4330,-82.6670,10.0,1.27,246.41,1.76,'11111222,11111222,11111222' 
COMPS,ioos:station:USF.COMPS:ARP:1,2019-06-04T03:54:00,28.4330,-82.6670,10.0,1.24,288.07,2.25,'11111222,11111222,11111222' 
COMPS,ioos:station:USF.COMPS:ARP:1,2019-06-04T04:54:00,28.4330,-82.6670,10.0,0.59,84.21,0.97,'11111222,11111222,11111222' 
COMPS,ioos:station:USF.COMPS:ARP:1,2019-06-04T05:54:00,28.4330,-82.6670,10.0,0.46,89.34,0.68,'11111222,11111222,11111222' 
COMPS,ioos:station:USF.COMPS:ARP:1,2019-06-04T06:54:00,28.4330,-82.6670,10.0,0.7,91.93,0.97,'11111222,11111222,11111222' 
COMPS,ioos:station:USF.COMPS:ARP:1,2019-06-04T07:54:00,28.4330,-82.6670,10.0,0.69,92.73,1.07,'11111222,11111222,11111222' 
COMPS,ioos:station:USF.COMPS:ARP:1,2019-06-04T08:54:00,28.4330,-82.6670,10.0,0.1,104.17,0.39,'11111222,11111222,11111222' 
COMPS,ioos:station:USF.COMPS:ARP:1,2019-06-04T09:54:00,28.4330,-82.6670,10.0,0.71,105.77,1.27,'11111222,11111222,11111222' 
COMPS,ioos:station:USF.COMPS:ARP:1,2019-06-04T10:54:00,28.4330,-82.6670,10.0,0.79,101.16,1.17,'11111222,11111222,11111222' 
COMPS,ioos:station:USF.COMPS:ARP:1,2019-06-04T11:54:00,28.4330,-82.6670,10.0,0.75,109.87,1.27,'11111222,11111222,11111222' 
COMPS,ioos:station:USF.COMPS:ARP:1,2019-06-04T12:54:00,28.4330,-82.6670,10.0,0.57,103.36,0.97,'11111222,11111222,11111222' 
COMPS,ioos:station:USF.COMPS:ARP:1,2019-06-04T13:54:00,28.4330,-82.6670,10.0,1.91,296.65,2.64,'11111222,11111222,11111222' 
COMPS,ioos:station:USF.COMPS:ARP:1,2019-06-04T14:54:00,28.4330,-82.6670,10.0,2.73,301.13,3.52,'11111222,11111222,11111222' 
COMPS,ioos:station:USF.COMPS:ARP:1,2019-06-04T15:54:00,28.4330,-82.6670,10.0,3.15,301.24,3.91,'11111222,11111222,11111222' 
COMPS,ioos:station:USF.COMPS:ARP:1,2019-06-04T16:54:00,28.4330,-82.6670,10.0,4.32,305.14,5.48,'11111222,11111222,11111222' 
COMPS,ioos:station:USF.COMPS:ARP:1,2019-06-04T17:54:00,28.4330,-82.6670,10.0,5.73,305.95,7.05,'11111222,11111222,11111222' 
COMPS,ioos:station:USF.COMPS:ARP:1,2019-06-04T18:54:00,28.4330,-82.6670,10.0,5.76,302.08,6.76,'11111222,11111222,11111222' 
COMPS,ioos:station:USF.COMPS:ARP:1,2019-06-04T19:54:00,28.4330,-82.6670,10.0,3.57,303.24,4.7,'11111222,11111222,11111222' 
COMPS,ioos:station:USF.COMPS:ARP:1,2019-06-04T20:54:00,28.4330,-82.6670,10.0,4.15,298.03,5.58,'11111222,11111222,11111222' 
COMPS,ioos:station:USF.COMPS:ARP:1,2019-06-04T21:54:00,28.4330,-82.6670,10.0,3.19,301.8,4.01,'11111222,11111222,11111222' 
COMPS,ioos:station:USF.COMPS:ARP:1,2019-06-04T22:54:00,28.4330,-82.6670,10.0,2.68,296.47,3.82,'11111222,11111222,11111222' 
COMPS,ioos:station:USF.COMPS:ARP:1,2019-06-04T23:54:00,28.4330,-82.6670,10.0,0.94,303.98,2.15,'11111222,11111222,11111222' 
COMPS,ioos:station:USF.COMPS:ARP:1,2019-06-05T00:54:00,28.4330,-82.6670,10.0,2.74,105.11,4.7,'11111222,11111222,11111222' 
COMPS,ioos:station:USF.COMPS:ARP:1,2019-06-05T01:54:00,28.4330,-82.6670,10.0,0.79,170.42,1.66,'11111222,11111222,11111222' 
COMPS,ioos:station:USF.COMPS:ARP:1,2019-06-05T02:54:00,28.4330,-82.6670,10.0,1.15,114.42,1.95,'11111222,11111222,11111222' 
COMPS,ioos:station:USF.COMPS:ARP:1,2019-06-05T03:54:00,28.4330,-82.6670,10.0,0.92,108.06,2.05,'11111222,11111222,11111222' 
COMPS,ioos:station:USF.COMPS:ARP:1,2019-06-05T04:54:00,28.4330,-82.6670,10.0,0.6,112.08,1.17,'11111222,11111222,11111222' 
COMPS,ioos:station:USF.COMPS:ARP:1,2019-06-05T05:54:00,28.4330,-82.6670,10.0,1.97,105.37,3.03,'11111222,11111222,11111222' 
COMPS,ioos:station:USF.COMPS:ARP:1,2019-06-05T06:54:00,28.4330,-82.6670,10.0,1.3,112.3,2.25,'11111222,11111222,11111222' 
COMPS,ioos:station:USF.COMPS:ARP:1,2019-06-05T07:54:00,28.4330,-82.6670,10.0,1.82,110.25,2.64,'11111222,11111222,11111222' 
COMPS,ioos:station:USF.COMPS:ARP:1,2019-06-05T08:54:00,28.4330,-82.6670,10.0,2.03,107.63,2.84,'11111222,11111222,11111222' 
COMPS,ioos:station:USF.COMPS:ARP:1,2019-06-05T09:54:00,28.4330,-82.6670,10.0,1.47,106.34,1.95,'11111222,11111222,11111222' 
COMPS,ioos:station:USF.COMPS:ARP:1,2019-06-05T10:54:00,28.4330,-82.6670,10.0,0.7,110.0,1.37,'11111222,11111222,11111222' 
COMPS,ioos:station:USF.COMPS:ARP:1,2019-06-05T11:54:00,28.4330,-82.6670,10.0,1.9,104.11,2.84,'11111222,11111222,11111222' 
COMPS,ioos:station:USF.COMPS:ARP:1,2019-06-05T12:54:00,28.4330,-82.6670,10.0,1.17,131.82,2.45,'11111222,11111222,11111222' 
COMPS,ioos:station:USF.COMPS:ARP:1,2019-06-05T13:54:00,28.4330,-82.6670,10.0,1.23,145.64,2.45,'11111222,11111222,11111222' 
COMPS,ioos:station:USF.COMPS:ARP:1,2019-06-05T14:54:00,28.4330,-82.6670,10.0,1.51,137.8,4.41,'11111222,11111222,11111222' 
COMPS,ioos:station:USF.COMPS:ARP:1,2019-06-05T15:54:00,28.4330,-82.6670,10.0,1.73,167.55,3.72,'11111222,11111222,11111222' 
COMPS,ioos:station:USF.COMPS:ARP:1,2019-06-05T16:54:00,28.4330,-82.6670,10.0,3.99,281.38,4.8,'11111222,11111222,11111222' 
COMPS,ioos:station:USF.COMPS:ARP:1,2019-06-05T17:54:00,28.4330,-82.6670,10.0,3.94,288.15,5.19,'11111222,11111222,11111222' 
COMPS,ioos:station:USF.COMPS:ARP:1,2019-06-05T18:54:00,28.4330,-82.6670,10.0,4.28,286.96,5.78,'11111222,11111222,11111222' 
COMPS,ioos:station:USF.COMPS:ARP:1,2019-06-05T19:54:00,28.4330,-82.6670,10.0,4.4,306.04,6.07,'11111222,11111222,11111222' 
COMPS,ioos:station:USF.COMPS:ARP:1,2019-06-05T20:54:00,28.4330,-82.6670,10.0,1.76,313.14,2.54,'11111222,11111222,11111222' 
COMPS,ioos:station:USF.COMPS:ARP:1,2019-06-05T21:54:00,28.4330,-82.6670,10.0,2.69,307.47,3.52,'11111222,11111222,11111222' 
COMPS,ioos:station:USF.COMPS:ARP:1,2019-06-05T22:54:00,28.4330,-82.6670,10.0,2.87,121.82,4.9,'11111222,11111222,11111222' 
COMPS,ioos:station:USF.COMPS:ARP:1,2019-06-05T23:54:00,28.4330,-82.6670,10.0,0.56,171.63,1.17,'11111222,11111222,11111222' 
COMPS,ioos:station:USF.COMPS:ARP:1,2019-06-06T00:54:00,28.4330,-82.6670,10.0,0.97,109.68,1.56,'11111222,11111222,11111222' 
COMPS,ioos:station:USF.COMPS:ARP:1,2019-06-06T01:54:00,28.4330,-82.6670,10.0,0.58,97.09,1.07,'11111222,11111222,11111222' 
COMPS,ioos:station:USF.COMPS:ARP:1,2019-06-06T02:54:00,28.4330,-82.6670,10.0,2.55,103.53,4.01,'11111222,11111222,11111222' 
COMPS,ioos:station:USF.COMPS:ARP:1,2019-06-06T03:54:00,28.4330,-82.6670,10.0,1.87,117.69,3.52,'11111222,11111222,11111222' 
COMPS,ioos:station:USF.COMPS:ARP:1,2019-06-06T04:54:00,28.4330,-82.6670,10.0,0.82,137.77,1.66,'11111222,11111222,11111222' 
COMPS,ioos:station:USF.COMPS:ARP:1,2019-06-06T05:54:00,28.4330,-82.6670,10.0,0.62,130.15,1.66,'11111222,11111222,11111222' 
COMPS,ioos:station:USF.COMPS:ARP:1,2019-06-06T06:54:00,28.4330,-82.6670,10.0,0.8,133.13,1.76,'11111222,11111222,11111222' 
COMPS,ioos:station:USF.COMPS:ARP:1,2019-06-06T07:54:00,28.4330,-82.6670,10.0,0.62,112.92,1.37,'11111222,11111222,11111222' 
COMPS,ioos:station:USF.COMPS:ARP:1,2019-06-06T08:54:00,28.4330,-82.6670,10.0,0.16,113.08,0.58,'11111222,11111222,11111222' 
COMPS,ioos:station:USF.COMPS:ARP:1,2019-06-06T09:54:00,28.4330,-82.6670,10.0,1.49,117.14,2.25,'11111222,11111222,11111222' 
COMPS,ioos:station:USF.COMPS:ARP:1,2019-06-06T10:54:00,28.4330,-82.6670,10.0,1.01,127.69,2.05,'11111222,11111222,11111222' 
COMPS,ioos:station:USF.COMPS:ARP:1,2019-06-06T11:54:00,28.4330,-82.6670,10.0,1.5,156.06,2.64,'11111222,11111222,11111222' 
COMPS,ioos:station:USF.COMPS:ARP:1,2019-06-06T12:54:00,28.4330,-82.6670,10.0,1.4,117.49,2.84,'11111222,11111222,11111222' 
COMPS,ioos:station:USF.COMPS:ARP:1,2019-06-06T13:54:00,28.4330,-82.6670,10.0,1.63,228.77,2.84,'11111222,11111222,11111222' 
COMPS,ioos:station:USF.COMPS:ARP:1,2019-06-06T14:54:00,28.4330,-82.6670,10.0,3.8,287.87,5.09,'11111222,11111222,11111222' 
COMPS,ioos:station:USF.COMPS:ARP:1,2019-06-06T15:54:00,28.4330,-82.6670,10.0,4.14,281.9,5.68,'11111222,11111222,11111222' 
COMPS,ioos:station:USF.COMPS:ARP:1,2019-06-06T16:54:00,28.4330,-82.6670,10.0,4.69,268.27,6.37,'11111222,11111222,11111222' 
COMPS,ioos:station:USF.COMPS:ARP:1,2019-06-06T17:54:00,28.4330,-82.6670,10.0,4.82,273.6,6.56,'11111222,11111222,11111222' 
COMPS,ioos:station:USF.COMPS:ARP:1,2019-06-06T18:54:00,28.4330,-82.6670,10.0,3.55,287.58,4.7,'11111222,11111222,11111222' 
COMPS,ioos:station:USF.COMPS:ARP:1,2019-06-06T19:54:00,28.4330,-82.6670,10.0,4.69,278.16,6.37,'11111222,11111222,11111222' 
COMPS,ioos:station:USF.COMPS:ARP:1,2019-06-06T20:54:00,28.4330,-82.6670,10.0,3.83,274.1,4.9,'11111222,11111222,11111222' 
COMPS,ioos:station:USF.COMPS:ARP:1,2019-06-06T21:54:00,28.4330,-82.6670,10.0,3.48,282.87,4.9,'11111222,11111222,11111222' 
COMPS,ioos:station:USF.COMPS:ARP:1,2019-06-06T22:54:00,28.4330,-82.6670,10.0,2.4,282.52,3.42,'11111222,11111222,11111222' 
COMPS,ioos:station:USF.COMPS:ARP:1,2019-06-06T23:54:00,28.4330,-82.6670,10.0,1.1,254.63,1.56,'11111222,11111222,11111222' 
COMPS,ioos:station:USF.COMPS:ARP:1,2019-06-07T00:54:00,28.4330,-82.6670,10.0,0.26,208.71,0.78,'11111222,11111222,11111222' 
COMPS,ioos:station:USF.COMPS:ARP:1,2019-06-07T01:54:00,28.4330,-82.6670,10.0,0.22,110.57,0.58,'11111222,11111222,11111222' 
COMPS,ioos:station:USF.COMPS:ARP:1,2019-06-07T02:54:00,28.4330,-82.6670,10.0,0.51,140.91,1.95,'11111222,11111222,11111222' 
COMPS,ioos:station:USF.COMPS:ARP:1,2019-06-07T03:54:00,28.4330,-82.6670,10.0,0.8,132.58,1.76,'11111222,11111222,11111222' 
COMPS,ioos:station:USF.COMPS:ARP:1,2019-06-07T04:54:00,28.4330,-82.6670,10.0,0.85,122.98,1.86,'11111222,11111222,11111222' 
COMPS,ioos:station:USF.COMPS:ARP:1,2019-06-07T05:54:00,28.4330,-82.6670,10.0,0.62,119.91,1.37,'11111222,11111222,11111222' 
COMPS,ioos:station:USF.COMPS:ARP:1,2019-06-07T06:54:00,28.4330,-82.6670,10.0,0.86,124.01,1.46,'11111222,11111222,11111222' 
COMPS,ioos:station:USF.COMPS:ARP:1,2019-06-07T07:54:00,28.4330,-82.6670,10.0,0.85,121.92,2.35,'11111222,11111222,11111222' 
COMPS,ioos:station:USF.COMPS:ARP:1,2019-06-07T08:54:00,28.4330,-82.6670,10.0,1.17,124.45,2.64,'11111222,11111222,11111222' 
COMPS,ioos:station:USF.COMPS:ARP:1,2019-06-07T09:54:00,28.4330,-82.6670,10.0,0.99,143.5,2.74,'11111222,11111222,11111222' 
COMPS,ioos:station:USF.COMPS:ARP:1,2019-06-07T10:54:00,28.4330,-82.6670,10.0,1.2,109.42,2.25,'11111222,11111222,11111222' 
COMPS,ioos:station:USF.COMPS:ARP:1,2019-06-07T11:54:00,28.4330,-82.6670,10.0,0.57,135.63,1.17,'11111222,11111222,11111222' 
COMPS,ioos:station:USF.COMPS:ARP:1,2019-06-07T12:54:00,28.4330,-82.6670,10.0,0.92,131.89,2.15,'11111222,11111222,11111222' 
COMPS,ioos:station:USF.COMPS:ARP:1,2019-06-07T13:54:00,28.4330,-82.6670,10.0,1.41,197.32,4.01,'11111222,11111222,11111222' 
COMPS,ioos:station:USF.COMPS:ARP:1,2019-06-07T14:54:00,28.4330,-82.6670,10.0,2.89,247.25,5.19,'11111222,11111222,11111222' 
COMPS,ioos:station:USF.COMPS:ARP:1,2019-06-07T15:54:00,28.4330,-82.6670,10.0,3.63,259.06,6.66,'11111222,11111222,11111222' 
COMPS,ioos:station:USF.COMPS:ARP:1,2019-06-07T16:54:00,28.4330,-82.6670,10.0,6.44,267.27,8.91,'11111222,11111222,11111222' 
COMPS,ioos:station:USF.COMPS:ARP:1,2019-06-07T17:54:00,28.4330,-82.6670,10.0,6.23,263.92,8.42,'11111222,11111222,11111222' 
COMPS,ioos:station:USF.COMPS:ARP:1,2019-06-07T18:54:00,28.4330,-82.6670,10.0,5.46,264.29,7.25,'11111222,11111222,11111222' 
COMPS,ioos:station:USF.COMPS:ARP:1,2019-06-07T19:54:00,28.4330,-82.6670,10.0,4.75,265.02,7.35,'11111222,11111222,11111222' 
COMPS,ioos:station:USF.COMPS:ARP:1,2019-06-07T20:54:00,28.4330,-82.6670,10.0,4.78,260.47,8.13,'11111222,11111222,11111222' 
COMPS,ioos:station:USF.COMPS:ARP:1,2019-06-07T21:54:00,28.4330,-82.6670,10.0,4.6,266.34,6.07,'11111222,11111222,11111222' 
COMPS,ioos:station:USF.COMPS:ARP:1,2019-06-07T22:54:00,28.4330,-82.6670,10.0,1.59,73.64,2.64,'11111222,11111222,11111222' 
COMPS,ioos:station:USF.COMPS:ARP:1,2019-06-07T23:54:00,28.4330,-82.6670,10.0,3.67,268.98,5.09,'11111222,11111222,11111222' 
COMPS,ioos:station:USF.COMPS:ARP:1,2019-06-08T00:54:00,28.4330,-82.6670,10.0,3.08,261.54,4.7,'11111222,11111222,11111222' 
COMPS,ioos:station:USF.COMPS:ARP:1,2019-06-08T01:54:00,28.4330,-82.6670,10.0,2.13,254.94,3.91,'11111222,11111222,11111222' 
COMPS,ioos:station:USF.COMPS:ARP:1,2019-06-08T02:54:00,28.4330,-82.6670,10.0,1.97,257.22,3.62,'11111222,11111222,11111222' 
COMPS,ioos:station:USF.COMPS:ARP:1,2019-06-08T03:54:00,28.4330,-82.6670,10.0,0.44,157.19,1.27,'11111222,11111222,11111222' 
COMPS,ioos:station:USF.COMPS:ARP:1,2019-06-08T04:54:00,28.4330,-82.6670,10.0,1.15,149.35,2.45,'11111222,11111222,11111222' 
COMPS,ioos:station:USF.COMPS:ARP:1,2019-06-08T05:54:00,28.4330,-82.6670,10.0,0.94,215.81,2.05,'11111222,11111222,11111222' 
COMPS,ioos:station:USF.COMPS:ARP:1,2019-06-08T06:54:00,28.4330,-82.6670,10.0,0.69,192.05,1.37,'11111222,11111222,11111222' 
COMPS,ioos:station:USF.COMPS:ARP:1,2019-06-08T07:54:00,28.4330,-82.6670,10.0,0.71,122.51,1.66,'11111222,11111222,11111222' 
COMPS,ioos:station:USF.COMPS:ARP:1,2019-06-08T08:54:00,28.4330,-82.6670,10.0,2.5,190.08,6.66,'11111222,11111222,11111222' 
COMPS,ioos:station:USF.COMPS:ARP:1,2019-06-08T09:54:00,28.4330,-82.6670,10.0,2.12,113.5,3.52,'11111222,11111222,11111222' 
COMPS,ioos:station:USF.COMPS:ARP:1,2019-06-08T10:54:00,28.4330,-82.6670,10.0,1.28,6.37,4.6,'11111222,11111222,11111222' 
COMPS,ioos:station:USF.COMPS:ARP:1,2019-06-08T11:54:00,28.4330,-82.6670,10.0,3.87,263.84,7.93,'11111222,11111222,11111222' 
COMPS,ioos:station:USF.COMPS:ARP:1,2019-06-08T12:54:00,28.4330,-82.6670,10.0,1.89,81.01,2.84,'11111222,11111222,11111222' 
COMPS,ioos:station:USF.COMPS:ARP:1,2019-06-08T13:54:00,28.4330,-82.6670,10.0,1.68,107.16,2.93,'11111222,11111222,11111222' 
COMPS,ioos:station:USF.COMPS:ARP:1,2019-06-08T14:54:00,28.4330,-82.6670,10.0,0.98,190.83,2.05,'11111222,11111222,11111222' 
COMPS,ioos:station:USF.COMPS:ARP:1,2019-06-08T15:54:00,28.4330,-82.6670,10.0,1.77,159.32,3.62,'11111222,11111222,11111222' 
COMPS,ioos:station:USF.COMPS:ARP:1,2019-06-08T16:54:00,28.4330,-82.6670,10.0,0.93,202.97,2.15,'11111222,11111222,11111222' 
COMPS,ioos:station:USF.COMPS:ARP:1,2019-06-08T17:54:00,28.4330,-82.6670,10.0,1.84,217.57,3.42,'11111222,11111222,11111222' 
COMPS,ioos:station:USF.COMPS:ARP:1,2019-06-08T23:54:00,28.4330,-82.6670,10.0,2.19,299.78,4.31,'11111222,11111222,11111222' 
COMPS,ioos:station:USF.COMPS:ARP:1,2019-06-09T00:54:00,28.4330,-82.6670,10.0,0.94,194.51,1.86,'11111222,11111222,11111222' 
COMPS,ioos:station:USF.COMPS:ARP:1,2019-06-09T01:54:00,28.4330,-82.6670,10.0,1.56,186.31,3.62,'11111222,11111222,11111222' 
COMPS,ioos:station:USF.COMPS:ARP:1,2019-06-09T02:54:00,28.4330,-82.6670,10.0,1.64,151.63,3.52,'11111222,11111222,11111222' 
COMPS,ioos:station:USF.COMPS:ARP:1,2019-06-09T03:54:00,28.4330,-82.6670,10.0,1.31,166.54,3.03,'11111222,11111222,11111222' 
COMPS,ioos:station:USF.COMPS:ARP:1,2019-06-09T04:54:00,28.4330,-82.6670,10.0,1.25,177.15,2.93,'11111222,11111222,11111222' 
COMPS,ioos:station:USF.COMPS:ARP:1,2019-06-09T05:54:00,28.4330,-82.6670,10.0,2.08,177.28,4.31,'11111222,11111222,11111222' 